Tracking 30923 objects as of 1-Jul-2025
HD Live streaming from Space Station
objects crossing your sky now

THOR ABLESTAR DEB

Track THOR ABLESTAR DEB now!
10-day predictions


NORAD ID: 408
Int'l Code: 1961-015EH
Perigee: 934.3 km
Apogee: 1,030.3 km
Inclination: 66.8 °
Period: 104.6 minutes
Semi major axis: 7353 km
RCS: 0.1296 m2 (medium)
Launch date: June 29, 1961
Source: United States (US)
Launch site: AIR FORCE EASTERN TEST RANGE (AFETR)

Note: This is SATELLITE DEBRIS
Your satellite tracking list
SL-8 DEB
Track 1 satellite(s)




NASA's NSSDC Master Catalog

Two Line Element Set (TLE):
1 00408U 61015EH  25181.54756087  .00000111  00000-0  18496-3 0  9998
2 00408  66.7849 228.5208 0065237 353.0382 122.5076 13.76825966257288
Source of the keplerian elements: AFSPC